Wind_Speed
40 41 39 43 43 46 45 42 49 66 77 77 74 77 76 74 74 76 78 79 78 77 75 74 73 71 71 69 65 65 64 53 54 50 55 52 54 42 40 38 40 42 39 37 34 35 33 34 30
43 45 42 43 46 47 49 48 47 52 65 77 79 78 79 79 78 75 80 81 79 80 79 78 76 75 77 74 74 70 65 61 57 60 58 50 51 51 46 47 48 46 40 40 41 40 38 36 36
42 43 45 44 48 49 49 51 53 53 58 68 73 79 75 79 84 81 83 84 87 83 83 83 81 80 79 81 73 75 72 67 63 60 57 57 49 47 48 50 46 45 44 45 43 41 38 33 41
42 45 47 48 49 48 54 51 52 57 59 62 70 73 78 78 81 86 84 89 89 92 89 85 86 86 83 82 81 76 72 74 69 68 64 67 63 58 52 51 50 47 51 51 51 43 42 44 44
46 45 47 52 52 53 54 56 59 59 56 66 66 75 77 76 77 81 87 89 94 94 94 94 91 90 89 88 87 84 80 78 75 75 72 70 66 66 58 58 56 56 53 54 54 52 52 51 53
47 50 52 54 56 59 59 61 62 64 66 64 66 73 76 73 77 83 84 87 91 96 94 96 98 95 96 93 91 91 90 89 82 79 78 74 67 66 65 56 59 55 57 58 58 59 55 51 52
51 53 56 57 57 57 61 63 64 65 69 71 72 71 75 77 82 87 88 88 93 95 98 97 98 102 101 100 97 95 94 94 93 89 80 81 79 72 66 64 64 60 57 62 64 63 59 55 60
44 46 48 51 54 55 56 58 63 67 71 74 78 79 81 79 84 88 89 93 94 96 100 103 104 101 105 106 104 100 99 98 96 94 91 84 83 77 72 65 69 69 66 63 62 65 63 61 61
41 45 47 49 51 53 57 62 65 68 72 75 78 82 85 87 90 91 94 97 98 100 101 105 108 109 106 107 108 109 105 100 100 99 98 94 89 84 77 77 73 70 69 66 65 69 67 65 60
37 41 44 48 51 55 58 61 64 66 71 75 78 83 86 92 97 100 103 104 105 105 107 109 110 112 116 112 108 110 111 108 104 105 103 101 95 91 81 78 77 76 72 70 69 73 74 72 67
40 40 42 46 49 55 60 63 66 69 74 78 80 86 91 93 98 104 109 113 115 115 115 113 114 116 117 119 120 112 112 113 113 109 107 107 102 97 90 83 80 77 79 77 76 79 79 78 75
41 43 45 46 49 53 56 61 64 67 71 78 83 89 94 99 103 110 117 121 122 124 125 123 121 120 119 120 124 126 121 118 116 116 111 109 108 103 98 91 84 85 83 79 80 79 81 84 81
48 48 48 51 51 55 54 60 59 66 73 80 86 92 99 106 112 118 124 128 131 133 134 134 132 128 126 125 123 124 129 126 121 119 118 112 111 107 106 102 91 88 87 88 85 72 76 81 79
51 52 53 56 54 54 53 63 62 71 79 84 89 96 100 108 115 121 124 128 133 137 140 143 143 141 135 134 130 126 126 131 131 126 121 120 114 112 109 104 102 91 90 88 90 92 88 86 83
57 57 58 59 58 56 56 66 67 75 77 80 85 90 95 105 111 113 119 124 130 137 142 145 146 148 146 143 138 136 131 129 132 134 130 125 121 114 115 109 107 103 100 95 88 92 94 91 91
59 61 63 60 58 60 62 69 71 72 73 77 80 80 80 81 74 74 96 114 124 129 136 145 147 149 151 149 146 142 137 135 131 135 133 131 131 123 118 119 107 107 105 103 101 88 91 93 93
61 65 68 61 58 65 68 72 71 70 76 78 79 81 81 73 63 57 69 94 109 116 125 133 140 151 149 153 151 150 142 138 136 135 136 134 132 132 126 120 121 114 107 109 103 104 94 93 93
64 64 66 63 63 66 69 71 69 73 75 76 80 86 84 81 71 60 54 60 89 102 110 116 122 133 146 151 149 153 150 145 140 137 134 135 132 134 133 130 122 120 106 104 108 108 106 102 97
65 64 64 64 69 68 75 77 74 74 75 78 85 92 90 79 74 58 52 51 64 82 95 99 105 113 126 142 149 150 150 150 146 143 137 136 133 134 131 135 132 128 119 106 104 102 100 103 102
62 64 62 65 73 74 72 75 73 74 75 77 83 87 87 81 64 53 52 49 52 63 79 89 91 96 108 122 136 144 147 146 148 146 142 141 139 136 134 132 127 128 129 116 104 105 106 107 105
61 63 61 67 75 74 70 68 69 72 76 75 79 87 83 70 60 49 44 46 46 50 60 73 81 85 88 101 121 134 141 141 146 147 145 141 137 135 136 127 128 129 129 128 126 115 107 108 106
59 58 61 69 74 73 70 66 66 71 75 71 71 77 77 63 51 44 39 37 39 43 48 54 65 74 80 86 102 121 130 137 139 138 140 138 137 137 135 133 134 129 128 126 128 126 117 109 109
58 54 60 69 72 74 70 68 62 70 69 64 70 72 65 53 42 38 35 33 31 33 40 45 50 59 68 77 86 102 119 125 133 133 134 137 141 138 136 134 136 130 129 128 128 125 125 122 117
57 54 61 69 73 72 68 67 64 64 66 66 68 66 60 47 35 32 30 25 23 24 29 36 42 48 56 63 74 86 105 116 121 130 131 132 136 142 138 137 128 124 127 129 128 127 125 126 124
57 56 61 66 68 65 64 63 61 65 63 66 68 64 55 42 33 28 22 17 14 15 20 27 33 40 46 53 61 74 88 103 112 117 126 130 132 134 135 131 126 121 120 125 127 128 128 128 126
52 57 66 67 65 58 63 61 57 59 59 62 62 57 47 37 30 25 20 13 10 9 12 19 26 32 37 43 50 60 73 91 104 111 113 122 126 129 127 128 129 127 126 123 126 127 129 128 128
47 55 63 66 58 54 57 56 53 55 56 59 54 47 39 32 27 23 15 11 8 6 6 11 17 24 30 36 44 54 68 81 93 102 107 107 111 117 121 121 127 128 124 122 123 125 124 127 128
48 53 60 64 55 48 53 51 50 49 54 58 51 42 35 28 25 20 16 13 11 8 2 3 10 18 25 33 42 51 63 73 82 90 95 96 95 96 99 106 108 110 117 119 122 124 123 121 124
47 53 60 60 55 50 48 46 46 46 50 56 47 40 31 23 22 19 16 16 16 13 11 9 9 14 21 30 37 45 56 65 72 78 81 81 82 81 81 84 85 88 87 95 102 110 113 118 123
46 50 61 58 51 49 45 42 41 42 47 51 46 41 30 21 22 20 16 18 20 18 18 14 11 13 20 27 36 43 50 56 61 64 66 68 69 70 71 72 73 74 75 76 79 78 86 93 107
Wind_Direction
250 257 252 248 247 249 250 244 240 233 233 228 230 230 231 233 233 229 232 233 233 232 231 230 228 228 230 223 220 219 222 220 218 224 229 223 223 247 245 240 251 246 246 238 243 250 251 247 248
251 254 254 249 246 250 250 249 246 239 236 236 230 230 231 232 234 233 232 233 232 235 232 231 231 229 229 227 225 223 222 221 222 220 223 232 229 239 245 244 243 248 250 249 245 245 249 253 241
247 249 253 253 249 249 254 252 247 245 240 239 239 237 231 231 231 229 232 233 233 231 235 232 231 231 230 229 228 228 226 221 222 221 221 228 227 227 237 244 242 241 246 247 238 242 244 252 241
257 253 253 257 253 252 251 253 253 250 245 242 239 241 241 235 232 231 231 233 234 232 231 234 234 232 233 231 229 230 228 226 224 227 224 226 230 229 234 235 241 244 237 242 241 240 247 251 255
256 254 256 258 256 255 254 255 255 253 251 246 246 242 241 242 238 236 233 232 234 234 233 232 233 234 234 234 231 230 228 229 230 226 228 226 229 232 235 237 239 242 238 243 240 244 248 251 254
259 259 258 256 258 259 257 255 255 254 253 249 246 245 245 240 245 240 237 234 233 233 234 234 233 233 233 233 235 232 231 230 231 232 228 230 232 233 233 237 235 240 246 243 243 242 242 246 251
262 262 262 261 261 257 257 254 253 254 253 252 249 247 247 245 243 243 242 239 234 233 234 233 234 234 233 233 233 235 234 234 233 232 232 230 233 235 237 238 233 234 236 243 246 244 243 249 253
264 261 262 263 261 259 258 258 256 255 255 253 251 250 247 245 244 245 241 242 241 236 233 234 234 233 234 233 232 231 234 235 236 235 234 230 230 233 236 236 238 235 241 240 241 248 244 253 255
271 266 264 261 262 262 262 259 256 256 255 254 252 251 247 247 246 245 245 242 241 239 237 234 234 233 231 232 232 231 229 234 234 234 235 234 232 230 235 237 236 239 238 240 240 241 243 249 255
284 277 270 267 265 265 264 263 261 258 259 258 257 254 252 248 247 245 244 243 242 240 238 237 234 233 233 232 231 230 230 229 232 233 234 233 231 231 230 234 235 236 233 234 236 240 243 245 247
290 285 283 281 277 271 268 266 264 262 260 259 257 257 254 250 246 245 244 243 242 240 238 237 236 235 233 233 232 231 230 229 230 231 232 234 232 230 231 231 231 232 235 235 236 237 238 239 244
300 294 296 293 285 278 273 269 268 269 267 265 262 260 257 254 248 244 241 240 239 240 239 237 235 234 233 232 233 233 231 231 231 229 231 231 234 232 230 231 232 230 233 234 232 237 241 243 248
309 305 305 303 294 285 280 278 277 273 271 269 266 263 260 258 255 250 244 240 238 236 236 236 235 233 232 231 231 232 232 232 230 231 228 229 230 232 233 232 231 232 235 233 233 235 242 246 249
311 309 308 308 298 289 287 284 283 276 272 271 269 267 266 264 262 259 255 250 245 240 237 235 233 233 232 232 230 230 231 232 232 231 231 229 229 230 231 232 230 228 228 232 235 238 241 241 245
314 311 309 310 301 295 294 292 292 288 285 281 277 273 270 267 266 264 260 256 251 247 241 239 236 234 232 231 232 231 230 230 231 232 231 231 230 228 230 230 231 227 228 230 231 237 239 240 243
314 312 311 310 301 299 299 301 297 293 292 291 289 288 287 281 276 266 253 251 250 247 244 242 238 237 235 231 231 231 231 230 230 231 231 231 232 231 230 230 227 230 229 229 230 232 238 240 242
315 314 313 309 305 307 308 307 303 303 303 302 301 301 301 305 300 275 253 250 249 246 244 242 239 237 236 234 233 231 230 230 229 230 230 231 232 231 231 230 229 227 229 229 229 232 233 237 241
315 313 312 308 309 311 311 310 308 310 308 307 305 305 308 312 309 295 265 252 244 247 246 244 241 237 235 234 233 233 232 230 229 228 228 229 230 231 231 232 231 232 225 227 228 229 231 234 237
314 312 312 310 314 318 318 316 314 313 313 311 308 307 311 311 307 295 281 262 250 247 247 245 242 237 233 232 232 232 232 231 230 230 228 229 227 230 230 232 232 234 230 222 224 226 228 233 236
314 313 312 314 318 320 318 316 317 317 315 312 311 311 313 314 310 297 283 275 260 248 244 245 244 241 234 231 231 230 230 229 228 228 228 228 228 229 229 230 228 230 232 228 223 226 229 229 234
315 314 314 319 323 322 320 319 317 318 316 313 311 311 316 316 311 300 285 276 266 254 244 242 243 241 237 231 228 228 228 227 227 227 227 228 228 229 230 228 229 230 231 233 232 230 228 227 229
316 313 318 326 324 325 321 321 322 320 316 316 314 314 316 317 310 301 293 281 266 257 249 241 238 239 236 231 228 226 226 226 225 226 227 226 228 228 230 229 229 230 231 231 232 234 229 229 232
315 314 323 327 324 325 323 322 323 322 320 319 315 318 321 319 313 306 301 288 273 258 251 245 238 234 234 231 226 226 224 224 223 223 224 226 227 229 230 231 231 230 231 233 232 232 233 233 234
314 318 328 328 325 325 323 319 320 326 328 324 322 327 327 324 319 316 305 289 272 259 248 241 236 230 228 227 225 222 224 223 222 222 222 222 226 228 231 233 232 234 233 234 234 234 235 237 236
314 322 327 329 327 323 320 316 323 328 332 329 325 329 331 329 330 323 313 302 285 266 248 233 230 227 221 219 217 218 220 222 220 220 222 223 223 226 229 232 233 235 236 237 237 236 237 238 236
314 325 329 328 329 326 322 320 327 330 338 335 329 335 336 333 337 334 329 321 311 283 250 229 227 224 215 209 209 210 214 217 217 219 221 223 226 226 227 229 234 235 237 236 238 239 237 237 239
318 328 331 331 330 329 321 318 327 334 341 342 340 340 344 343 347 349 350 356 348 316 260 233 225 220 206 199 197 200 207 210 213 216 220 222 225 228 228 229 231 231 233 234 236 235 237 238 240
323 330 333 332 329 329 320 322 327 338 347 350 348 347 353 352 354 3 11 19 16 17 6 208 204 201 193 189 191 196 201 205 209 213 218 222 224 227 230 232 236 238 236 236 238 238 235 235 235
326 331 335 334 330 329 324 321 333 342 351 358 357 355 357 356 11 18 26 39 40 50 69 100 141 171 179 183 187 192 198 202 206 212 217 221 223 225 227 231 235 237 239 240 241 242 242 239 238
329 335 336 332 330 329 328 331 338 347 359 4 7 8 6 10 26 29 33 43 52 64 76 83 104 145 166 175 182 187 194 201 208 214 219 222 224 227 229 232 234 236 238 239 241 242 244 243 241
Height
10699 10698 10699 10699 10699 10698 10699 10703 10705 10711 10714 10717 10721 10723 10726 10729 10736 10744 10737 10744 10747 10753 10758 10762 10766 10771 10778 10782 10786 10791 10794 10798 10801 10805 10808 10810 10813 10815 10819 10822 10824 10826 10828 10830 10832 10834 10836 10839 10840
10691 10690 10690 10690 10691 10690 10690 10694 10696 10697 10699 10700 10707 10708 10714 10719 10723 10732 10731 10732 10737 10741 10745 10750 10755 10760 10765 10771 10777 10781 10786 10791 10794 10797 10802 10804 10807 10811 10813 10816 10819 10820 10823 10825 10826 10828 10830 10833 10835
10682 10682 10683 10682 10681 10684 10683 10681 10685 10687 10689 10689 10692 10692 10702 10706 10705 10716 10715 10717 10721 10727 10732 10738 10743 10748 10751 10759 10764 10770 10776 10780 10785 10788 10792 10797 10800 10802 10807 10810 10813 10814 10816 10817 10819 10821 10824 10826 10829
10673 10674 10673 10672 10674 10674 10673 10671 10672 10674 10676 10677 10679 10681 10686 10687 10693 10697 10698 10701 10704 10708 10715 10723 10729 10735 10738 10744 10751 10755 10762 10768 10773 10778 10782 10786 10791 10795 10800 10802 10805 10808 10809 10809 10811 10813 10817 10820 10822
10663 10664 10663 10662 10663 10662 10662 10662 10662 10663 10664 10666 10670 10670 10669 10674 10677 10679 10683 10685 10689 10693 10698 10704 10709 10716 10723 10729 10736 10741 10747 10754 10760 10765 10771 10775 10781 10785 10790 10794 10796 10799 10802 10802 10804 10806 10808 10811 10814
10653 10653 10652 10651 10650 10648 10650 10649 10648 10648 10649 10653 10655 10653 10653 10667 10661 10660 10662 10667 10672 10678 10681 10686 10693 10698 10704 10711 10719 10726 10732 10739 10746 10751 10757 10764 10769 10773 10779 10784 10786 10790 10793 10794 10796 10797 10799 10802 10805
10641 10641 10639 10638 10637 10637 10633 10635 10634 10634 10633 10635 10636 10637 10636 10644 10642 10643 10646 10647 10651 10657 10660 10666 10672 10678 10685 10693 10700 10708 10717 10722 10729 10736 10744 10752 10757 10761 10765 10771 10776 10779 10784 10786 10787 10789 10790 10794 10797
10631 10628 10627 10626 10624 10624 10621 10622 10620 10618 10617 10619 10617 10619 10621 10627 10623 10622 10625 10625 10630 10635 10638 10642 10649 10656 10663 10671 10681 10690 10696 10705 10712 10719 10729 10736 10743 10749 10754 10758 10763 10769 10774 10777 10779 10781 10783 10785 10789
10622 10620 10617 10615 10612 10611 10608 10606 10605 10603 10601 10599 10599 10597 10602 10602 10601 10602 10602 10604 10606 10610 10615 10618 10625 10631 10638 10648 10658 10667 10678 10686 10693 10701 10711 10720 10729 10735 10742 10747 10751 10756 10761 10766 10768 10770 10773 10777 10779
10611 10608 10607 10604 10601 10597 10594 10591 10589 10588 10583 10579 10577 10573 10576 10578 10576 10576 10574 10575 10579 10584 10588 10594 10599 10604 10614 10624 10634 10643 10654 10664 10671 10680 10688 10699 10710 10719 10728 10733 10739 10743 10747 10752 10756 10758 10764 10766 10768
10601 10598 10595 10591 10589 10583 10578 10575 10571 10570 10563 10559 10556 10550 10546 10546 10544 10543 10544 10545 10547 10552 10556 10565 10572 10579 10586 10595 10608 10619 10630 10640 10649 10658 10668 10679 10691 10702 10712 10722 10725 10730 10733 10739 10743 10744 10747 10749 10755
10590 10586 10583 10578 10573 10565 10562 10556 10555 10550 10544 10536 10531 10523 10516 10510 10508 10505 10505 10507 10510 10516 10522 10529 10538 10548 10557 10567 10579 10592 10604 10616 10626 10639 10648 10660 10671 10687 10698 10704 10709 10718 10720 10726 10729 10733 10736 10740 10745
10578 10573 10568 10562 10557 10549 10546 10537 10537 10526 10518 10511 10503 10495 10486 10480 10473 10468 10465 10467 10471 10474 10481 10492 10504 10514 10525 10537 10548 10561 10575 10589 10602 10614 10627 10639 10651 10667 10679 10687 10695 10702 10708 10711 10713 10720 10720 10728 10734
10566 10560 10555 10548 10540 10534 10531 10516 10517 10501 10492 10485 10476 10464 10458 10446 10437 10433 10437 10441 10442 10443 10444 10450 10463 10477 10490 10505 10519 10532 10546 10560 10575 10591 10604 10618 10630 10644 10657 10668 10676 10685 10689 10695 10701 10706 10709 10712 10718
10553 10545 10539 10532 10522 10517 10512 10493 10490 10472 10464 10455 10442 10434 10424 10411 10402 10402 10393 10391 10395 10404 10412 10419 10429 10441 10457 10469 10485 10501 10517 10532 10547 10563 10579 10594 10609 10623 10636 10648 10656 10666 10669 10679 10690 10691 10694 10698 10700
10541 10532 10523 10519 10508 10498 10489 10473 10464 10450 10438 10424 10411 10400 10386 10374 10363 10349 10339 10336 10341 10353 10363 10380 10390 10408 10422 10438 10455 10471 10488 10505 10522 10537 10552 10568 10584 10604 10614 10627 10636 10645 10654 10662 10675 10678 10681 10686 10688
10529 10518 10507 10499 10495 10478 10466 10452 10440 10428 10410 10396 10381 10366 10351 10335 10321 10307 10300 10298 10299 10304 10315 10330 10348 10368 10386 10408 10423 10439 10456 10477 10493 10508 10527 10542 10559 10579 10591 10601 10611 10624 10633 10643 10653 10663 10666 10670 10673
10518 10507 10495 10484 10476 10465 10448 10433 10419 10405 10389 10373 10355 10339 10321 10303 10289 10276 10269 10267 10268 10270 10277 10288 10304 10326 10350 10370 10388 10405 10426 10444 10461 10482 10498 10517 10534 10549 10564 10581 10592 10603 10616 10625 10634 10641 10648 10652 10659
10506 10496 10485 10470 10456 10448 10428 10409 10399 10385 10369 10350 10332 10313 10293 10278 10265 10252 10243 10242 10241 10243 10247 10254 10268 10287 10309 10329 10351 10370 10395 10416 10435 10457 10475 10492 10507 10521 10539 10556 10573 10584 10598 10605 10616 10624 10632 10636 10646
10494 10485 10471 10459 10443 10430 10416 10396 10384 10367 10350 10333 10313 10293 10272 10254 10241 10232 10222 10220 10219 10220 10221 10227 10239 10255 10275 10295 10317 10338 10363 10389 10408 10431 10446 10463 10481 10498 10514 10535 10548 10562 10578 10591 10599 10607 10613 10619 10628
10482 10472 10460 10447 10431 10414 10399 10387 10369 10353 10336 10319 10298 10274 10254 10238 10223 10215 10208 10203 10201 10200 10203 10209 10218 10230 10247 10266 10285 10307 10333 10354 10377 10399 10421 10445 10466 10479 10494 10514 10528 10540 10554 10571 10582 10591 10597 10603 10609
10476 10463 10450 10434 10418 10401 10387 10376 10358 10342 10325 10305 10286 10263 10241 10226 10213 10201 10194 10191 10188 10187 10188 10193 10201 10210 10223 10239 10259 10279 10303 10331 10356 10386 10410 10432 10441 10457 10474 10489 10502 10521 10535 10547 10559 10569 10580 10586 10591
10466 10456 10441 10424 10407 10391 10375 10361 10351 10331 10313 10296 10274 10252 10232 10216 10203 10193 10185 10180 10176 10175 10176 10179 10186 10194 10203 10219 10238 10259 10282 10307 10338 10360 10382 10408 10421 10436 10450 10464 10479 10501 10516 10527 10535 10547 10557 10568 10573
10455 10444 10431 10414 10396 10382 10365 10350 10338 10322 10304 10281 10261 10240 10222 10209 10197 10187 10179 10172 10168 10166 10166 10169 10174 10182 10192 10204 10221 10242 10263 10289 10318 10341 10364 10382 10397 10416 10432 10449 10468 10482 10495 10506 10518 10529 10538 10548 10553
10444 10433 10423 10411 10394 10374 10359 10346 10329 10313 10298 10273 10252 10233 10216 10203 10193 10184 10176 10168 10163 10161 10161 10164 10168 10175 10183 10193 10209 10229 10250 10276 10303 10325 10345 10362 10378 10397 10415 10432 10448 10462 10476 10489 10499 10509 10519 10526 10533
10439 10425 10408 10397 10384 10368 10350 10338 10325 10309 10294 10271 10248 10229 10213 10201 10191 10183 10174 10167 10163 10160 10161 10163 10167 10172 10179 10190 10204 10222 10243 10267 10290 10311 10328 10344 10363 10381 10399 10414 10427 10444 10454 10468 10477 10489 10499 10506 10514
10435 10422 10405 10391 10377 10364 10346 10334 10324 10308 10290 10269 10246 10227 10212 10201 10192 10184 10176 10168 10165 10163 10163 10165 10169 10173 10180 10191 10204 10220 10239 10258 10278 10298 10315 10333 10352 10369 10386 10399 10410 10422 10435 10446 10454 10464 10474 10484 10494
10427 10414 10401 10384 10373 10364 10344 10332 10319 10307 10287 10266 10244 10228 10213 10203 10195 10187 10180 10173 10169 10167 10167 10167 10171 10177 10184 10194 10206 10221 10238 10255 10273 10290 10307 10325 10342 10359 10373 10386 10397 10406 10419 10430 10436 10446 10453 10463 10471
10422 10408 10394 10379 10364 10356 10345 10331 10318 10305 10288 10267 10247 10232 10218 10208 10199 10192 10187 10180 10175 10173 10173 10175 10179 10184 10192 10202 10213 10227 10242 10258 10273 10288 10305 10321 10335 10350 10362 10373 10383 10390 10400 10411 10421 10431 10440 10447 10456
10416 10405 10389 10375 10363 10350 10339 10328 10317 10305 10288 10271 10251 10237 10225 10215 10205 10200 10196 10190 10185 10184 10184 10188 10192 10197 10204 10212 10223 10235 10249 10263 10276 10290 10304 10318 10331 10342 10353 10362 10370 10378 10387 10397 10406 10415 10416 10427 10439